Poplar Bluff, MO

11:18 PM CDT on August 26, 2016 (GMT -0500)
Poplar Bluff Municipal

Weather History for KPOF - February, 2012

Change the Weather History Date:

Wednesday, February 29, 2012

  Actual Average Record
Temperature  
Mean Temperature 62 °F -  
Max Temperature 73 °F - 80 °F (1932)
Min Temperature 50 °F - 12 °F (1980)
Degree Days  
Heating Degree Days 3    
Growing Degree Days 12 (Base 50)    
Moisture  
Dew Point 44 °F    
Average Humidity 57    
Maximum Humidity 94    
Minimum Humidity 17    
Precipitation  
Precipitation 0.30 in - - ()
Sea Level Pressure  
Sea Level Pressure 29.79 in    
Wind  
Wind Speed 16 mph (SW)    
Max Wind Speed 29 mph    
Max Gust Speed 51 mph    
Visibility 9 miles    
Events Rain , Thunderstorm    
Averages and records for this station are not official NWS values.
T = Trace of Precipitation, MM = Missing Value Source: NWS Daily Summary

Daily Weather History Graph

Daily Weather History Graph

Search for Another Location

Airport or City:

Trip Planner

Search our weather history database for the weather conditions in past years. The results will help you decide how hot, cold, wet, or windy it might be!

Date:

Astronomy

Feb. 29, 2012 Rise Set
Actual Time 6:32 AM CST 5:55 PM CST
Civil Twilight 6:06 AM CST 6:21 PM CST
Nautical Twilight 5:36 AM CST 6:51 PM CST
Astronomical Twilight 5:06 AM CST 7:21 PM CST
Moon 10:35 AM CST (2/29) 12:30 AM CST (2/29)
Length of Visible Light 12h 14m
Length of Day
11h 22m
Waxing Crescent, 47% of the Moon is Illuminated
Feb 29
Waxing Crescent
Feb 29
First Quarter
Mar 8
Full
Mar 14
Last Quarter
Mar 22
New

Hourly Weather History & Observations

Time (CST) Temp. Dew Point Humidity Pressure Visibility Wind Dir Wind Speed Gust Speed Precip Events Conditions
12:16 AM 64.4 °F 62.6 °F 94% 29.81 in 10.0 mi South 17.3 mph 28.8 mph N/A   Overcast
12:48 AM 66.2 °F 62.6 °F 88% 29.79 in 10.0 mi South 21.9 mph 28.8 mph N/A   Overcast
12:53 AM 66.9 °F 63.0 °F 87% 29.78 in 10.0 mi South 21.9 mph 28.8 mph N/A   Overcast
1:53 AM 69.1 °F 63.0 °F 81% 29.76 in 10.0 mi SSW 23.0 mph 34.5 mph 0.00 in   Overcast
2:53 AM 69.1 °F 63.0 °F 81% 29.75 in 10.0 mi SSW 28.8 mph 35.7 mph N/A   Overcast
3:41 AM 69.8 °F 62.6 °F 78% 29.73 in 10.0 mi SSW 23.0 mph 33.4 mph N/A   Scattered Clouds
3:53 AM 69.1 °F 63.0 °F 81% 29.72 in 10.0 mi SSW 24.2 mph 38.0 mph N/A Thunderstorm Scattered Clouds
4:17 AM 66.2 °F 55.4 °F 68% 29.80 in 10.0 mi WNW 19.6 mph 29.9 mph N/A Thunderstorm Thunderstorm
4:24 AM 59.0 °F 53.6 °F 82% 29.80 in 1.5 mi West 21.9 mph 50.6 mph 0.04 in Rain , Thunderstorm Heavy Thunderstorms and Rain
4:34 AM 57.2 °F 51.8 °F 82% 29.79 in 2.0 mi West 15.0 mph 28.8 mph 0.26 in Rain , Thunderstorm Thunderstorms and Rain
4:42 AM 57.2 °F 51.8 °F 82% 29.81 in 6.0 mi West 11.5 mph 21.9 mph 0.29 in Rain , Thunderstorm Light Thunderstorms and Rain
4:53 AM 57.9 °F 52.0 °F 81% 29.79 in 9.0 mi WSW 6.9 mph 16.1 mph 0.30 in Rain , Thunderstorm Light Thunderstorms and Rain
5:17 AM 57.2 °F 48.2 °F 72% 29.79 in 10.0 mi WSW 5.8 mph - 0.00 in   Scattered Clouds
5:53 AM 55.9 °F 48.0 °F 75% 29.81 in 10.0 mi SSW 3.5 mph - 0.00 in   Overcast
6:53 AM 55.0 °F 46.9 °F 74% 29.81 in 10.0 mi SSW 5.8 mph - N/A   Overcast
7:53 AM 55.9 °F 48.9 °F 77% 29.83 in 10.0 mi SSW 4.6 mph - N/A   Overcast
8:53 AM 57.9 °F 48.9 °F 72% 29.84 in 10.0 mi SSW 4.6 mph - N/A   Mostly Cloudy
9:53 AM 60.1 °F 46.9 °F 62% 29.82 in 10.0 mi SW 6.9 mph - N/A   Overcast
10:53 AM 62.1 °F 44.1 °F 52% 29.81 in 10.0 mi WSW 6.9 mph - N/A   Mostly Cloudy
11:53 AM 64.0 °F 44.1 °F 48% 29.80 in 10.0 mi SW 9.2 mph - N/A   Partly Cloudy
12:53 PM 70.0 °F 41.0 °F 35% 29.75 in 10.0 mi WSW 15.0 mph 21.9 mph N/A   Clear
1:53 PM 72.0 °F 32.0 °F 23% 29.72 in 10.0 mi WSW 20.7 mph 34.5 mph N/A   Clear
2:53 PM 73.0 °F 26.1 °F 17% 29.72 in 10.0 mi WSW 28.8 mph 40.3 mph N/A   Clear
3:53 PM 72.0 °F 25.0 °F 17% 29.72 in 10.0 mi WSW 20.7 mph 32.2 mph N/A   Clear
4:53 PM 70.0 °F 27.0 °F 20% 29.75 in 10.0 mi West 25.3 mph 33.4 mph N/A   Clear
5:53 PM 66.9 °F 28.0 °F 23% 29.78 in 10.0 mi West 15.0 mph 21.9 mph N/A   Clear
6:53 PM 64.0 °F 27.0 °F 25% 29.81 in 10.0 mi West 19.6 mph 24.2 mph N/A   Clear
7:53 PM 62.1 °F 21.9 °F 21% 29.82 in 10.0 mi West 9.2 mph 18.4 mph N/A   Clear
8:53 PM 57.0 °F 24.1 °F 28% 29.86 in 10.0 mi WSW 5.8 mph - N/A   Clear
9:53 PM 57.0 °F 24.1 °F 28% 29.87 in 10.0 mi WSW 6.9 mph - N/A   Clear
10:53 PM 51.1 °F 27.0 °F 39% 29.89 in 10.0 mi SW 5.8 mph - N/A   Clear
11:53 PM 50.0 °F 30.0 °F 46% 29.91 in 10.0 mi SSW 5.8 mph - N/A   Clear